Flag for Poland Weather past 2 weeks in Radom, Poland

Now
41 °F

Fog.


Feels Like: 41 °F
Forecast: 44 / 72 °F
Wind: 1 mph from Northeast

Location: Kielce

Current Time: Apr 27, 2015 at 7:33:42 AM

Latest Report: Apr 27, 2015 at 6:00 AM


Visibility: 0 mi

Pressure: 29.81 "Hg

Humidity: 100%

Dew point: 41 °F

Location of RadomLocation

Historic Weather in Radom — Graph

°F

Radom temperature yesterday

Maximum temperature yesterday: 68 °F (at 4:00 PM)
Minimum temperature yesterday: 42 °F (at 6:00 AM)
Average temperature yesterday: 56 °F

Past Weeks' High & Low Weather Summary

 TemperatureHumidityPressure
High70 °F (Apr 25, 5:00 PM)100% (Apr 25, 5:00 AM)30.37 "Hg (Apr 25, 5:00 AM)
Low30 °F (Apr 23, 6:00 AM)25% (Apr 12, 3:00 PM)29.75 "Hg (Apr 26, 4:00 PM)
Average48 °F65%30.03 "Hg
* Reported Apr 12 6:00 AM — Apr 27 6:00 AM, Radom, Weather by CustomWeather, © 2015

Note: Actual official high and low records may vary slightly from our data, if they occured in-between our weather recording intervals... More about our weather records

Advertising

Radom weather history for previous 24 hours

 ConditionsComfort  
Time TempWeatherWind HumidityBarometerVisibility
6:00 AM
Mon, Apr 27
41 °FFog.1 mph100%29.81 "Hg0 mi
5:00 AM42 °FFog.1 mph100%29.80 "Hg0 mi
4:00 AM42 °FFog.1 mph100%29.81 "Hg0 mi
3:00 AM44 °FFog.No wind100%29.81 "Hg0 mi
2:00 AM45 °FFog.1 mph100%29.81 "Hg0 mi
1:00 AM48 °FFog.No wind100%29.81 "Hg0 mi
12:00 AM48 °FFog.1 mph100%29.82 "Hg0 mi
11:00 PM
Sun, Apr 26
52 °FFog.1 mph98%29.81 "Hg1 mi
10:00 PM53 °FFog.1 mph96%29.80 "Hg1 mi
9:00 PM54 °FThunderstorms. Overcast.1 mph95%29.80 "Hg2 mi
8:00 PM55 °FThundershowers. Overcast.2 mph94%29.79 "Hg5 mi
7:00 PM58 °FThundershowers. Overcast.5 mph84%29.80 "Hg2 mi
6:00 PM61 °FThunderstorms. Overcast.2 mph69%29.76 "Hg9 mi
5:00 PM64 °FThunderstorms. Overcast.6 mph58%29.76 "Hg22 mi
4:00 PM68 °FOvercast.3 mph45%29.75 "Hg25 mi
3:00 PM67 °FOvercast.3 mph45%29.77 "Hg25 mi
2:00 PM67 °FOvercast.3 mph48%29.79 "Hg28 mi
1:00 PM67 °FOvercast.2 mph47%29.80 "Hg25 mi
12:00 PM66 °FOvercast.2 mph51%29.81 "Hg28 mi
11:00 AM65 °FOvercast.3 mph48%29.82 "Hg28 mi
10:00 AM64 °FOvercast.1 mph53%29.82 "Hg16 mi
9:00 AM58 °FOvercast.1 mph65%29.84 "Hg12 mi
8:00 AM52 °FOvercast.No wind78%29.85 "Hg9 mi
7:00 AM46 °FOvercast.1 mph89%29.85 "Hg7 mi
Weather by CustomWeather, © 2015

See weather overviewHow to use our weather pages